STARLINK-36693, 67742

Orbit data source: Space-Track

STARLINK-36693, 67742 is a payload satellite owned by SpaceX/Seattle (US) in SSO that was launched on Wed, 11 Feb 2026 UTC via an FALCON 9 launch vehicle from the Air Force Western Test Range (AFWTR). Payload-class satellites include a variety of spacecraft equipped with specific instruments for various scientific and technological missions. These include communications satellites like Starlink; space stations such as the ISS; scientific satellites like the Hubble; Earth observation satellites from companies like Planet Labs, Umbra, and HawkEye 360; GPS; miniature CubeSats for education and research; and military/defense satellites.

Loading next visibility...
Identifier
67742, 2026-026X
Orbit
SSO
Country
Flag of USUS
Related business
Manufacturer
SpaceX/Seattle
Mission
Operational Commercial Communications
Bus & Motor
STARLINK V2MO, Unknown motor
Mass
575 kg wet, ~530 kg dry
Launch date (UTC)
2026-02-11 (3 months ago)
Launch vehicle
FALCON 9
Launch site
Air Force Western Test Range (AFWTR)
Object type
Payload
Rocket body
Debris
Shape & HBR
Box + 2 Pan, 17.7 m
Radar Cross Section
36.964 m²

Expand to show TLE details & history
Last TLE update: 10 hours ago

TLE from 10 hours ago
0 STARLINK-36693
1 67742U 26026X   26130.11791598  .00012837  00000-0  39956-3 0  9991
2 67742  97.2847 183.9097 0001288  97.9979 262.1410 15.33422729 13548
Epoch: 2026-05-10T02:49Z
TLE epoch observation values (Epoch: 2026-05-10T02:49:47.940Z)
Latitude
-0.00003°
Longitude
-86.46564°
Altitude
468.842 km
Speed
7.632 km/s
True Right ascension
12h 15m 38s
True Declination
0° 00' 00"
Sunlit
Object was in full shadow at epoch
Visualization orbit readout
Latitude
Unknown
Longitude
Unknown
Altitude
Unknown
Speed
Unknown
Apparent Right ascension
Unknown
Apparent Declination
Unknown
Sunlit
N/A
Visualization observer readout
Local Sidereal Time
21:22:12
Azimuth
Unknown
Elevation
Unknown
Doppler factor
Unknown
Orbital elements
Apogee altitude
463.433 km
Perigee altitude
461.671 km
Semi-major axis
6,840.689 km
Eccentricity
0.00013
Inclination
97.2847°
RAAN
183.9097°
Arg. of periapsis
97.9979°
True anomaly
262.12638°
Mean anomaly
262.141°
Eccentric anomaly
262.13369°
Mean motion
3.83613 °/min
Orbital period
93.84 mins
BSTAR
0.00039956
Loading maneuver chart data...
Computing Atmospheric mass density...
Loading historical data...
Loading historical data...
Loading historical data...
Loading historical data...
Loading historical data...
Loading historical data...
Loading historical data...

Documentation

Showing up to 5 results
|